Zurück zum Katalog

COSMOS 770

AktivMilitärPO
NORAD 8325·PAYLOAD·🇷🇺 Russia

Gestartet Sep 24, 1975 von Plesetsk Cosmodrome

Loading…

Nächste Überflüge (nächste 24 Stunden)

TLE

AktuellSource: Space-Track

Epoche: Sep 14, 2026, 14:29 UTC

1 08325U 75089A   26257.60353047  .00000028  00000-0  36800-4 0  9998
2 08325  82.9584 308.7950 0027648 227.5078 298.5068 13.19809095455182

Verfolge COSMOS 770 in Echtzeit mit AllMySat

Download on the App Store